Time,TemperatureF,DewpointF,PressureIn,WindDirection,WindDirectionDegrees,WindSpeedMPH,WindSpeedGustMPH,Humidity,HourlyPrecipIn,Conditions,Clouds,dailyrainin,SolarRadiationWatts/m^2,SoftwareType,DateUTC
2013-06-04 00:11:00,51.5,49.0,30.44,SSE,150,0.0,-999.0,90,-99.99,,,0.00,0,weatherlink.com 1.10,2013-06-03 23:11:00,
2013-06-04 00:41:00,50.4,49.0,30.43,SSE,150,0.0,-999.0,93,-99.99,,,0.00,0,weatherlink.com 1.10,2013-06-03 23:41:00,
2013-06-04 00:56:00,50.3,49.0,30.43,SSE,150,0.0,-999.0,94,-99.99,,,0.00,0,weatherlink.com 1.10,2013-06-03 23:56:00,
2013-06-04 01:11:00,49.7,48.0,30.43,SSE,150,0.0,-999.0,94,-99.99,,,0.00,0,weatherlink.com 1.10,2013-06-04 00:11:00,
2013-06-04 01:42:00,50.2,49.0,30.43,SSE,150,0.0,-999.0,95,-99.99,,,0.00,0,weatherlink.com 1.10,2013-06-04 00:42:00,
2013-06-04 01:56:00,50.4,49.0,30.43,SSE,150,0.0,-999.0,95,-99.99,,,0.00,0,weatherlink.com 1.10,2013-06-04 00:56:00,
2013-06-04 02:11:00,50.6,49.0,30.43,SSE,150,0.0,-999.0,95,-99.99,,,0.00,0,weatherlink.com 1.10,2013-06-04 01:11:00,
2013-06-04 02:27:00,50.5,49.0,30.43,SSE,150,0.0,-999.0,95,-99.99,,,0.00,0,weatherlink.com 1.10,2013-06-04 01:27:00,
2013-06-04 02:41:00,50.1,49.0,30.43,SSE,150,0.0,-999.0,95,-99.99,,,0.00,0,weatherlink.com 1.10,2013-06-04 01:41:00,
2013-06-04 02:56:00,49.9,49.0,30.42,SSE,150,0.0,-999.0,95,-99.99,,,0.00,0,weatherlink.com 1.10,2013-06-04 01:56:00,
2013-06-04 03:12:00,49.5,48.0,30.42,SSE,150,0.0,-999.0,95,-99.99,,,0.00,0,weatherlink.com 1.10,2013-06-04 02:12:00,
2013-06-04 03:27:00,49.3,48.0,30.42,SSE,150,0.0,-999.0,96,-99.99,,,0.00,0,weatherlink.com 1.10,2013-06-04 02:27:00,
2013-06-04 03:42:00,48.5,47.0,30.42,SSE,150,0.0,-999.0,95,-99.99,,,0.00,0,weatherlink.com 1.10,2013-06-04 02:42:00,
2013-06-04 03:57:00,48.3,47.0,30.42,SSE,150,0.0,-999.0,96,-99.99,,,0.00,0,weatherlink.com 1.10,2013-06-04 02:57:00,
2013-06-04 04:12:00,48.2,47.0,30.42,SSE,150,2.0,-999.0,96,-99.99,,,0.00,0,weatherlink.com 1.10,2013-06-04 03:12:00,
2013-06-04 04:27:00,49.3,49.0,30.42,SSE,150,0.0,-999.0,97,-99.99,,,0.00,0,weatherlink.com 1.10,2013-06-04 03:27:00,
2013-06-04 04:42:00,49.9,49.0,30.42,SSE,150,1.0,-999.0,97,-99.99,,,0.00,0,weatherlink.com 1.10,2013-06-04 03:42:00,
2013-06-04 04:57:00,50.2,49.0,30.42,SSE,150,0.0,-999.0,97,-99.99,,,0.00,7,weatherlink.com 1.10,2013-06-04 03:57:00,
2013-06-04 05:12:00,50.3,50.0,30.42,SSE,150,0.0,-999.0,97,-99.99,,,0.00,12,weatherlink.com 1.10,2013-06-04 04:12:00,
2013-06-04 05:27:00,50.6,50.0,30.42,SSE,150,0.0,-999.0,97,-99.99,,,0.00,28,weatherlink.com 1.10,2013-06-04 04:27:00,
2013-06-04 05:42:00,51.9,51.0,30.42,SSE,150,2.0,-999.0,98,-99.99,,,0.00,40,weatherlink.com 1.10,2013-06-04 04:42:00,
2013-06-04 05:57:00,53.4,53.0,30.42,NNE,15,4.0,-999.0,97,-99.99,,,0.00,51,weatherlink.com 1.10,2013-06-04 04:57:00,
2013-06-04 06:12:00,53.9,53.0,30.43,NNE,21,6.0,-999.0,97,-99.99,,,0.00,70,weatherlink.com 1.10,2013-06-04 05:12:00,
2013-06-04 06:27:00,54.7,54.0,30.43,North,5,6.0,-999.0,96,-99.99,,,0.00,162,weatherlink.com 1.10,2013-06-04 05:27:00,
2013-06-04 06:42:00,56.2,54.0,30.43,North,355,6.0,-999.0,91,-99.99,,,0.00,229,weatherlink.com 1.10,2013-06-04 05:42:00,
2013-06-04 06:57:00,58.1,54.0,30.43,North,360,10.0,-999.0,86,-99.99,,,0.00,292,weatherlink.com 1.10,2013-06-04 05:57:00,
2013-06-04 07:12:00,59.1,53.0,30.43,NNE,15,5.0,-999.0,81,-99.99,,,0.00,204,weatherlink.com 1.10,2013-06-04 06:12:00,
2013-06-04 07:27:00,58.5,53.0,30.43,NE,46,5.0,-999.0,82,-99.99,,,0.00,213,weatherlink.com 1.10,2013-06-04 06:27:00,
2013-06-04 07:42:00,58.4,53.0,30.43,North,350,3.0,-999.0,83,-99.99,,,0.00,281,weatherlink.com 1.10,2013-06-04 06:42:00,
2013-06-04 07:57:00,59.3,54.0,30.43,North,10,6.0,-999.0,82,-99.99,,,0.00,517,weatherlink.com 1.10,2013-06-04 06:57:00,
2013-06-04 08:12:00,59.6,53.0,30.43,NNW,348,5.0,-999.0,80,-99.99,,,0.00,220,weatherlink.com 1.10,2013-06-04 07:12:00,
2013-06-04 08:27:00,59.5,54.0,30.42,NNE,13,5.0,-999.0,81,-99.99,,,0.00,258,weatherlink.com 1.10,2013-06-04 07:27:00,
2013-06-04 08:42:00,59.7,54.0,30.42,North,360,4.0,-999.0,80,-99.99,,,0.00,323,weatherlink.com 1.10,2013-06-04 07:42:00,
2013-06-04 08:57:00,60.5,54.0,30.42,NNE,29,7.0,-999.0,79,-99.99,,,0.00,346,weatherlink.com 1.10,2013-06-04 07:57:00,
2013-06-04 09:12:00,60.4,53.0,30.42,North,355,9.0,-999.0,77,-99.99,,,0.00,313,weatherlink.com 1.10,2013-06-04 08:12:00,
2013-06-04 09:27:00,60.7,53.0,30.41,North,5,5.0,-999.0,77,-99.99,,,0.00,366,weatherlink.com 1.10,2013-06-04 08:27:00,
2013-06-04 09:42:00,61.2,53.0,30.41,NNE,19,3.0,-999.0,74,-99.99,,,0.00,399,weatherlink.com 1.10,2013-06-04 08:42:00,
2013-06-04 09:57:00,61.7,53.0,30.41,NE,37,11.0,-999.0,72,-99.99,,,0.00,504,weatherlink.com 1.10,2013-06-04 08:57:00,
2013-06-04 10:13:00,61.9,52.0,30.41,NE,43,5.0,-999.0,70,-99.99,,,0.00,304,weatherlink.com 1.10,2013-06-04 09:13:00,
2013-06-04 10:28:00,61.7,52.0,30.40,NNE,27,5.0,-999.0,70,-99.99,,,0.00,425,weatherlink.com 1.10,2013-06-04 09:28:00,
2013-06-04 10:43:00,63.5,54.0,30.40,North,5,7.0,-999.0,70,-99.99,,,0.00,411,weatherlink.com 1.10,2013-06-04 09:43:00,
2013-06-04 10:58:00,65.7,54.0,30.40,North,355,4.0,-999.0,65,-99.99,,,0.00,503,weatherlink.com 1.10,2013-06-04 09:58:00,
2013-06-04 11:13:00,67.4,54.0,30.39,NNE,22,6.0,-999.0,62,-99.99,,,0.00,422,weatherlink.com 1.10,2013-06-04 10:13:00,
2013-06-04 11:28:00,67.8,53.0,30.39,NNW,345,1.0,-999.0,59,-99.99,,,0.00,777,weatherlink.com 1.10,2013-06-04 10:28:00,
2013-06-04 11:43:00,68.8,52.0,30.38,NE,44,8.0,-999.0,55,-99.99,,,0.00,793,weatherlink.com 1.10,2013-06-04 10:43:00,
2013-06-04 11:58:00,69.1,54.0,30.38,NE,52,4.0,-999.0,58,-99.99,,,0.00,805,weatherlink.com 1.10,2013-06-04 10:58:00,
2013-06-04 12:13:00,69.6,53.0,30.37,East,97,8.0,-999.0,56,-99.99,,,0.00,812,weatherlink.com 1.10,2013-06-04 11:13:00,
2013-06-04 12:28:00,70.1,54.0,30.37,NE,36,7.0,-999.0,58,-99.99,,,0.00,821,weatherlink.com 1.10,2013-06-04 11:28:00,
2013-06-04 12:43:00,70.5,54.0,30.36,ENE,71,3.0,-999.0,57,-99.99,,,0.00,840,weatherlink.com 1.10,2013-06-04 11:43:00,
2013-06-04 12:58:00,71.6,53.0,30.36,NNE,28,8.0,-999.0,53,-99.99,,,0.00,837,weatherlink.com 1.10,2013-06-04 11:58:00,
2013-06-04 13:13:00,71.7,55.0,30.36,North,5,3.0,-999.0,55,-99.99,,,0.00,837,weatherlink.com 1.10,2013-06-04 12:13:00,
2013-06-04 13:28:00,72.3,54.0,30.35,ENE,69,6.0,-999.0,53,-99.99,,,0.00,835,weatherlink.com 1.10,2013-06-04 12:28:00,
2013-06-04 13:43:00,72.2,54.0,30.35,ENE,66,12.0,-999.0,54,-99.99,,,0.00,849,weatherlink.com 1.10,2013-06-04 12:43:00,
2013-06-04 13:58:00,72.8,54.0,30.34,East,80,0.0,-999.0,51,-99.99,,,0.00,851,weatherlink.com 1.10,2013-06-04 12:58:00,
2013-06-04 14:13:00,72.6,54.0,30.34,ENE,67,8.0,-999.0,52,-99.99,,,0.00,274,weatherlink.com 1.10,2013-06-04 13:13:00,
2013-06-04 14:28:00,71.8,54.0,30.33,East,85,7.0,-999.0,53,-99.99,,,0.00,320,weatherlink.com 1.10,2013-06-04 13:28:00,
2013-06-04 14:43:00,72.6,53.0,30.33,NE,43,5.0,-999.0,51,-99.99,,,0.00,1076,weatherlink.com 1.10,2013-06-04 13:43:00,
2013-06-04 14:58:00,72.7,53.0,30.33,ENE,63,4.0,-999.0,51,-99.99,,,0.00,283,weatherlink.com 1.10,2013-06-04 13:58:00,
2013-06-04 15:13:00,71.4,54.0,30.33,North,5,4.0,-999.0,54,-99.99,,,0.00,387,weatherlink.com 1.10,2013-06-04 14:13:00,
2013-06-04 15:28:00,71.4,53.0,30.32,ENE,76,7.0,-999.0,53,-99.99,,,0.00,411,weatherlink.com 1.10,2013-06-04 14:28:00,
2013-06-04 15:43:00,71.5,54.0,30.32,ENE,58,7.0,-999.0,54,-99.99,,,0.00,369,weatherlink.com 1.10,2013-06-04 14:43:00,
2013-06-04 15:58:00,71.0,53.0,30.32,ENE,63,3.0,-999.0,53,-99.99,,,0.00,341,weatherlink.com 1.10,2013-06-04 14:58:00,
2013-06-04 16:13:00,70.9,54.0,30.31,NNE,22,5.0,-999.0,55,-99.99,,,0.00,336,weatherlink.com 1.10,2013-06-04 15:13:00,
2013-06-04 16:28:00,71.3,53.0,30.30,NNE,30,3.0,-999.0,53,-99.99,,,0.00,461,weatherlink.com 1.10,2013-06-04 15:28:00,
2013-06-04 16:43:00,71.7,54.0,30.30,NNE,13,4.0,-999.0,54,-99.99,,,0.00,404,weatherlink.com 1.10,2013-06-04 15:43:00,
2013-06-04 16:59:00,70.9,53.0,30.30,East,80,2.0,-999.0,54,-99.99,,,0.00,378,weatherlink.com 1.10,2013-06-04 15:59:00,
2013-06-04 17:14:00,71.0,55.0,30.30,ENE,68,5.0,-999.0,58,-99.99,,,0.00,784,weatherlink.com 1.10,2013-06-04 16:14:00,
2013-06-04 17:29:00,73.2,55.0,30.29,ENE,67,5.0,-999.0,53,-99.99,,,0.00,717,weatherlink.com 1.10,2013-06-04 16:29:00,
2013-06-04 17:44:00,72.2,54.0,30.29,ESE,105,4.0,-999.0,54,-99.99,,,0.00,290,weatherlink.com 1.10,2013-06-04 16:44:00,
2013-06-04 17:59:00,71.3,54.0,30.28,East,88,3.0,-999.0,55,-99.99,,,0.00,276,weatherlink.com 1.10,2013-06-04 16:59:00,
2013-06-04 18:14:00,69.3,56.0,30.28,SE,136,7.0,-999.0,62,-99.99,,,0.00,396,weatherlink.com 1.10,2013-06-04 17:14:00,
2013-06-04 18:29:00,68.6,55.0,30.28,SE,143,5.0,-999.0,62,-99.99,,,0.00,448,weatherlink.com 1.10,2013-06-04 17:29:00,
2013-06-04 18:44:00,68.0,55.0,30.28,SE,146,6.0,-999.0,63,-99.99,,,0.00,206,weatherlink.com 1.10,2013-06-04 17:44:00,
2013-06-04 18:59:00,66.6,55.0,30.27,SE,143,5.0,-999.0,67,-99.99,,,0.00,404,weatherlink.com 1.10,2013-06-04 17:59:00,
2013-06-04 19:14:00,66.8,55.0,30.27,SSE,156,2.0,-999.0,66,-99.99,,,0.00,292,weatherlink.com 1.10,2013-06-04 18:14:00,
2013-06-04 19:29:00,66.5,54.0,30.26,SE,141,4.0,-999.0,65,-99.99,,,0.00,230,weatherlink.com 1.10,2013-06-04 18:29:00,
2013-06-04 19:44:00,66.3,54.0,30.26,SE,142,0.0,-999.0,65,-99.99,,,0.00,186,weatherlink.com 1.10,2013-06-04 18:44:00,
2013-06-04 19:59:00,66.1,55.0,30.26,SE,144,4.0,-999.0,67,-99.99,,,0.00,149,weatherlink.com 1.10,2013-06-04 18:59:00,
2013-06-04 20:14:00,65.0,54.0,30.26,ESE,114,4.0,-999.0,68,-99.99,,,0.00,114,weatherlink.com 1.10,2013-06-04 19:14:00,
2013-06-04 20:29:00,64.2,55.0,30.26,SSE,147,2.0,-999.0,71,-99.99,,,0.00,83,weatherlink.com 1.10,2013-06-04 19:29:00,
2013-06-04 20:44:00,63.6,54.0,30.26,SE,144,0.0,-999.0,72,-99.99,,,0.00,62,weatherlink.com 1.10,2013-06-04 19:44:00,
2013-06-04 20:59:00,63.2,54.0,30.26,SE,144,0.0,-999.0,71,-99.99,,,0.00,42,weatherlink.com 1.10,2013-06-04 19:59:00,
2013-06-04 21:14:00,62.8,54.0,30.27,SE,144,0.0,-999.0,73,-99.99,,,0.00,26,weatherlink.com 1.10,2013-06-04 20:14:00,
2013-06-04 21:29:00,61.9,54.0,30.27,SE,144,0.0,-999.0,74,-99.99,,,0.00,18,weatherlink.com 1.10,2013-06-04 20:29:00,
2013-06-04 21:44:00,60.4,53.0,30.27,SE,144,0.0,-999.0,77,-99.99,,,0.00,9,weatherlink.com 1.10,2013-06-04 20:44:00,
2013-06-04 21:59:00,58.8,53.0,30.27,SE,144,0.0,-999.0,81,-99.99,,,0.00,5,weatherlink.com 1.10,2013-06-04 20:59:00,
2013-06-04 22:14:00,57.4,52.0,30.27,SE,144,0.0,-999.0,83,-99.99,,,0.00,0,weatherlink.com 1.10,2013-06-04 21:14:00,
2013-06-04 22:29:00,56.0,51.0,30.27,SE,144,0.0,-999.0,84,-99.99,,,0.00,0,weatherlink.com 1.10,2013-06-04 21:29:00,
2013-06-04 22:44:00,54.5,50.0,30.27,SE,144,0.0,-999.0,86,-99.99,,,0.00,0,weatherlink.com 1.10,2013-06-04 21:44:00,
2013-06-04 22:59:00,53.9,50.0,30.27,SE,144,0.0,-999.0,87,-99.99,,,0.00,0,weatherlink.com 1.10,2013-06-04 21:59:00,
2013-06-04 23:14:00,54.1,50.0,30.27,SE,144,0.0,-999.0,87,-99.99,,,0.00,0,weatherlink.com 1.10,2013-06-04 22:14:00,
2013-06-04 23:29:00,54.2,50.0,30.26,SE,144,0.0,-999.0,85,-99.99,,,0.00,0,weatherlink.com 1.10,2013-06-04 22:29:00,
2013-06-04 23:44:00,53.8,50.0,30.26,SE,144,0.0,-999.0,86,-99.99,,,0.00,0,weatherlink.com 1.10,2013-06-04 22:44:00,
2013-06-04 23:59:00,53.3,50.0,30.26,SE,144,0.0,-999.0,87,-99.99,,,0.00,0,weatherlink.com 1.10,2013-06-04 22:59:00,